EW4392 Weather Reports


time (UTC)temp
C
wind
direction
speed
KPH
gust
KPH
rain 1hr
cm
rain 24hr
cm
rain mn
cm
humidity
%
barometer
mb
20260508043047 11 31 1.6 8.0 0.00 0.00 0.00 58 1012.8
20260508041545 12 3 0.0 8.0 0.00 0.00 0.00 57 1012.8
20260508040041 12 43 0.0 4.8 0.00 0.00 0.00 55 1012.6
20260508034540 12 295 0.0 12.9 0.00 0.00 0.00 54 1012.5
20260508033039 12 109 0.0 6.4 0.00 0.00 0.00 58 1012.4
20260508031535 12 5 0.0 9.7 0.00 0.00 0.00 59 1012.3
20260508030035 13 313 1.6 12.9 0.00 0.00 0.00 54 1012.0
20260508024534 12 211 0.0 3.2 0.00 0.05 0.00 58 1012.0
20260508023034 13 116 0.0 6.4 0.00 0.05 0.00 57 1011.8
20260508021528 13 322 0.0 11.3 0.00 0.05 0.00 54 1011.6
20260508020024 13 304 0.0 11.3 0.00 0.05 0.00 55 1011.3
20260508014530 13 22 0.0 12.9 0.00 0.08 0.00 57 1011.0
20260508013021 14 308 3.2 14.5 0.00 0.08 0.00 56 1010.9
20260508011520 14 311 4.8 17.7 0.00 0.08 0.00 55 1010.5
20260508010020 14 321 0.0 9.7 0.00 0.08 0.00 56 1010.3
20260508004517 13 306 3.2 12.9 0.00 0.08 0.00 57 1010.3
20260508003016 13 323 0.0 3.2 0.00 0.08 0.00 68 1010.2
20260508001515 13 336 0.0 4.8 0.00 0.08 0.00 68 1010.0
20260508000016 15 95 0.0 4.8 0.00 0.08 0.00 61 1009.9
20260507234518 15 216 1.6 8.0 0.00 0.08 0.00 60 1009.6
20260507233013 15 109 0.0 4.8 0.00 0.08 0.00 56 1009.4
20260507231512 16 59 0.0 3.2 0.00 0.08 0.00 56 1009.1
20260507230013 16 302 0.0 6.4 0.00 0.08 0.00 56 1008.9
20260507224515 16 205 0.0 9.7 0.00 0.08 0.00 56 1008.8
20260507223010 16 234 1.6 12.9 0.00 0.08 0.00 57 1008.6
20260507221509 17 237 1.6 16.1 0.00 0.08 0.00 58 1008.4
20260507220009 16 130 0.0 6.4 0.00 0.08 0.00 65 1008.2
20260507214506 16 84 0.0 4.8 0.00 0.08 0.00 72 1008.2
20260507213006 16 103 0.0 8.0 0.00 0.08 0.00 74 1008.2
20260507211505 16 284 0.0 8.0 0.00 0.08 0.00 74 1008.2
20260507210005 16 121 1.6 9.7 0.00 0.08 0.00 74 1008.1
20260507204503 16 183 4.8 9.7 0.00 0.08 0.00 73 1007.9
20260507203003 16 120 1.6 8.0 0.00 0.08 0.00 73 1008.0
20260507201502 16 107 1.6 6.4 0.00 0.08 0.00 71 1008.0
20260507200101 15 248 0.0 6.4 0.00 0.08 0.00 76 1008.3
20260507194600 15 83 1.6 4.8 0.00 0.08 0.00 73 1008.8
20260507193110 15 230 0.0 8.0 0.00 0.08 0.00 77 1009.2
20260507191600 14 305 0.0 3.2 0.00 0.08 0.00 76 1009.1
20260507190104 14 308 0.0 1.6 0.00 0.08 0.00 77 1009.3
20260507184557 13 327 0.0 4.8 0.00 0.08 0.00 77 1009.5
20260507183059 13 328 0.0 4.8 0.00 0.08 0.00 78 1009.5
20260507181554 13 314 0.0 1.6 0.00 0.08 0.00 78 1009.6
20260507180101 13 336 0.0 8.0 0.00 0.08 0.00 79 1009.6
20260507174554 13 303 0.0 4.8 0.00 0.08 0.00 78 1009.5
20260507173055 13 332 3.2 16.1 0.00 0.08 0.00 80 1009.6
20260507171556 13 352 1.6 11.3 0.00 0.08 0.00 80 1009.7
20260507170050 13 317 1.6 14.5 0.00 0.08 0.00 82 1009.7
20260507164547 13 302 3.2 14.5 0.00 0.08 0.00 81 1009.7
20260507163046 13 303 6.4 12.9 0.00 0.08 0.00 80 1009.7
20260507161543 13 28 1.6 14.5 0.00 0.08 0.00 79 1009.8
20260507160044 13 308 1.6 9.7 0.00 0.08 0.00 79 1009.8
20260507154542 14 313 3.2 12.9 0.00 0.08 0.00 79 1010.4
20260507153049 14 320 0.0 8.0 0.00 0.08 0.00 79 1010.1
20260507151540 14 328 1.6 9.7 0.00 0.08 0.00 79 1010.1
20260507150039 14 314 3.2 9.7 0.00 0.08 0.00 79 1009.9
20260507144537 14 296 0.0 4.8 0.00 0.10 0.00 79 1009.9
20260507143037 14 13 0.0 11.3 0.00 0.10 0.00 78 1009.9
20260507141536 14 332 3.2 12.9 0.00 0.10 0.00 77 1010.0
20260507140043 15 308 3.2 12.9 0.00 0.10 0.00 76 1009.3
20260507134532 15 359 0.0 6.4 0.00 0.15 0.00 78 1010.1
20260507133030 15 306 0.0 9.7 0.00 0.15 0.00 78 1010.0
20260507131525 15 294 0.0 6.4 0.00 0.15 0.00 79 1010.3
20260507130025 15 311 0.0 9.7 0.00 0.15 0.00 78 1009.9
20260507124525 15 318 0.0 6.4 0.00 0.15 0.00 81 1010.1
20260507123024 15 309 0.0 6.4 0.00 0.15 0.00 80 1010.0
20260507121521 15 318 1.6 9.7 0.00 0.15 0.00 80 1010.0
20260507120019 15 81 0.0 6.4 0.00 0.15 0.00 81 1009.9
20260507114519 15 325 0.0 12.9 0.00 0.15 0.00 80 1010.0
20260507113030 15 301 0.0 6.4 0.00 0.15 0.00 81 1009.7
20260507111521 15 358 0.0 8.0 0.00 0.15 0.00 80 1009.5
20260507110017 15 31 1.6 17.7 0.00 0.15 0.00 80 1009.2
20260507104516 15 323 1.6 9.7 0.00 0.15 0.00 80 1009.0
20260507103015 15 348 0.0 8.0 0.00 0.15 0.00 80 1009.2
20260507101512 15 339 3.2 16.1 0.00 0.15 0.00 80 1009.0
20260507100016 15 313 3.2 17.7 0.00 0.15 0.00 79 1008.9
20260507094509 15 325 4.8 16.1 0.00 0.15 0.00 80 1009.1
20260507093013 15 319 1.6 9.7 0.00 0.15 0.00 81 1009.0
20260507091611 15 321 3.2 11.3 0.00 0.15 0.00 81 1008.9
20260507090005 16 53 0.0 16.1 0.00 0.15 0.00 81 1008.2
20260507084501 16 322 1.6 14.5 0.00 0.15 0.00 81 1008.6
20260507083104 16 315 8.0 16.1 0.00 0.15 0.00 78 1009.0
20260507081600 16 7 1.6 8.0 0.00 0.15 0.00 80 1008.9
20260507080131 17 310 0.0 4.8 0.00 0.15 0.00 81 1009.0
20260507074603 17 317 1.6 6.4 0.00 0.15 0.00 80 1009.1
20260507073101 17 217 0.0 4.8 0.00 0.15 0.00 82 1008.9
20260507071602 17 296 1.6 6.4 0.00 0.15 0.00 83 1008.8
20260507070053 17 313 0.0 11.3 0.00 0.15 0.00 82 1008.5
20260507064556 17 103 0.0 11.3 0.00 0.15 0.00 85 1008.6
20260507063054 17 321 0.0 8.0 0.00 0.15 0.00 86 1008.9
20260507061549 17 86 0.0 6.4 0.00 0.15 0.00 91 1008.6
20260507060048 17 332 3.2 12.9 0.00 0.15 0.00 89 1008.8
20260507054552 17 329 0.0 6.4 0.00 0.15 0.00 92 1009.0
20260507053048 17 331 0.0 1.6 0.00 0.15 0.00 95 1009.3
20260507051544 16 308 0.0 3.2 0.00 0.15 0.00 95 1009.4
20260507050040 17 237 0.0 0.0 0.00 0.15 0.00 93 1008.9
20260507044539 17 228 0.0 1.6 0.00 0.15 0.00 93 1008.7